Regional Weather Roundup
Issued by NWS Newport/Morehead, NC

Current Version | Previous Version | Graphics & Text | Print | Product List | Glossary Off
Versions: 1 2 3 4 5 6 7 8 9 10 11 12 13 14 15 16 17 18 19 20 21 22 23 24 25 26 27 28 29 30 31 32 33 34 35 36 37 38 39 40 41 42 43 44 45 46 47 48 49 50

000
ASUS42 KMHX 281227
RWRMHX
WEATHER ROUNDUP FOR EASTERN NORTH CAROLINA
NATIONAL WEATHER SERVICE NEWPORT/MOREHEAD CITY NC
800 AM EDT SAT MAR 28 2015

NOTE: "FAIR" INDICATES FEW OR NO CLOUDS BELOW 12,000 FEET
WITH NO SIGNIFICANT WEATHER AND/OR OBSTRUCTIONS TO VISIBILITY

NCZ015>017-031-032-045>047-102-103-281300-
NORTH COAST

CITY           SKY/WX    TMP DP  RH WIND       PRES   REMARKS
EDENTON        CLOUDY    40  33  74 N10       29.94R
ELIZABETH CITY CLOUDY    39  32  76 NW9       29.91R
KITTY HAWK     CLOUDY    41  32  70 NW6G21    29.88R
MANTEO         CLOUDY    41  32  70 NW10G21   29.91R

$$

NCZ045>047-081-094-103-104-281300-
CENTRAL COAST

CITY           SKY/WX    TMP DP  RH WIND       PRES   REMARKS
FRISCO         PTSUNNY   42  35  76 NW12G23   29.89R
SWANQUARTER      N/A     41 N/A N/A NW9G16    29.88S

$$

NCZ095-097-098-100-101-281300-
SOUTHERN COAST

CITY           SKY/WX    TMP DP  RH WIND       PRES   REMARKS
BEAUFORT       PTSUNNY   42  38  85 NW12      29.94R
CEDAR ISLAND     N/A     45 N/A N/A NW18G28   29.97R
JACKSONVILLE   LGT RAIN  41  38  89 N12       29.96R
PINEY ISLAND   CLOUDY   N/A N/A N/A NW17G24   29.93R
WILMINGTON     CLOUDY    41  38  89 N6        29.99R


$$

NCZ011>013-027>030-043-044-078>080-089-090>093-098-281300-
COASTAL PLAIN

CITY           SKY/WX    TMP DP  RH WIND       PRES   REMARKS
AHOSKIE        LGT RAIN  37  34  89 CALM      29.95R
CLINTON        FAIR      40  37  87 NW3       30.00R
ELIZABETHTOWN  PTSUNNY   41  38  90 NW5       30.00R
GOLDSBORO      CLOUDY    38  37  99 N2        29.96R
GREENVILLE     PTSUNNY   37  36  93 NW3       29.99R
HAVELOCK       PTSUNNY   42  37  82 NW9       29.96R
KENANSVILLE    CLOUDY    39  37  90 CALM      30.00R
KINSTON        PTSUNNY   37  36  93 CALM      29.98R
NEW BERN       CLOUDY    41  35  79 NW12      29.96R
RICHLANDS      CLOUDY    37  34  87 NW6       29.99R
ROCKY MOUNT    CLOUDY    37  35  92 W5        29.97R
WASHINGTON     MOSUNNY   39  35  85 NW6       29.96R
WHITEVILLE     MOCLDY    41  37  84 CALM      30.00R

$$

AMZ130-135-150-152-154-156-158-170-250-252-270-ANZ085-086-088-633-658-670-281300-
MARINE OBSERVATIONS

STATION/POSITION TIME  TEMP    WIND        PRES    WAVE   SWELL
                       AIR SEA DIR/SP/G            HT/PER HT/PER
                 (UTC) (F)     (DEG/KT/KT) (MB)    (FT/S) (FT/S)
CHESAPEAKE LIGHT 1200   39     340/ 27/ 29 1012.3
64 E VA BEACH    1150   43 56  330/ 25/ 31 1009.3    8/ 8   3/13
DUCK             1200   41 41  340/ 20/ 22 1011.0
2 E DUCK         1211      41                N/A     6/ 8   2/11
10 NE DUCK       NOT AVBL
OREGON INLET     1200   41 45  330/ 12/ 17 1012.3
HATTERAS CG      1200   44 53  330/ 18/ 22 1012.7
CAPE LOOKOUT     1200   43     320/ 13/ 15 1013.5
BEAUFORT LAB     1200   42 56  320/  7/ 11 1013.1
27 SE WRIGHTSVLE 1200   44 64  360/ 17/ 21 1015.5
5 SE WRIGHTSVLE  1200   44 56  340/ 17/ 21 1014.9
225 S CAPE HAT   1150   62 69  290/ 27/ 35 1010.5   12/ 9
41 SE CHARLESTON 1150   52 68  310/ 17/ 23 1014.8    5/ 7   3/ 7

$$


USA.gov is the U.S. government's official web portal to all federal, state and local government web resources and services.